Location: Glens Falls
(43.3090°N, 73.6440°W)
Time: 11:35:00
(UTC-04:00)

Cosmos 2237 Rocket - Pass Details

Date: 24 February 2018
Orbit: 833 x 851 km, 71.0° (Epoch: 22 June)

Event Time Altitude Azimuth Distance (km) Brightness Sun altitude
Rises 18:01:21 0° 328° (NNW) 3,389 5.7 -5.1°
Reaches altitude 10° 18:03:55 10° 321° (NW) 2,451 5.1 -5.6°
Maximum altitude 18:09:06 40° 254° (WSW) 1,215 3.8 -6.5°
Drops below altitude 10° 18:14:17 10° 186° (S) 2,441 4.8 -7.5°
Sets 18:16:50 0° 179° (S) 3,373 5.4 -7.9°
